Regional Weather Roundup
Issued by NWS

Home | Current Version | Previous Version | Text Only | Print | Product List | Glossary Off
Versions: 1 2 3 4 5 6 7 8 9 10 11 12 13 14 15 16 17 18 19 20 21 22 23 24 25 26 27 28

000
ASUS45 KCYS 241610
RWRWY

WYOMING REGIONAL WEATHER ROUNDUP
NATIONAL WEATHER SERVICE CHEYENNE WY
1000 AM MDT FRI OCT 24 2014

NOTE:  "FAIR" INDICATES FEW OR NO CLOUDS BELOW 12,000 FEET
WITH NO SIGNIFICANT WEATHER AND/OR OBSTRUCTIONS TO VISIBILITY.

WYZ001-241700-
YELLOWSTONE NATIONAL PARK

CITY           SKY/WX    TMP DP  RH WIND       PRES   REMARKS
LK YELLOWSTONE   N/A     44  31  60 CALM      30.25
W YELLOWSTONE  NOT AVBL

$$
WYZ002>013-054>058-071-098>099-241700-
NORTHERN WYOMING

CITY           SKY/WX    TMP DP  RH WIND       PRES   REMARKS
JACKSON        PTSUNNY   50  32  50 S8        30.21R
CODY           CLOUDY    63  32  31 W7        30.07
GREYBULL       PTSUNNY   43  29  57 CALM      30.05R
WORLAND        MOSUNNY   51  30  44 SW6       30.06R HAZE
SHERIDAN       PTSUNNY   52  33  48 S3        30.06R
BUFFALO        PTSUNNY   61  29  29 N13       30.10R
GILLETTE       CLOUDY    57  35  43 NE6       30.06R
HULETT         FAIR      55  32  41 CALM      30.08
NEWCASTLE      FAIR      55  30  38 CALM      30.07

$$
WYZ014>020-022>026-101>103-241700-
CENTRAL WYOMING

CITY           SKY/WX    TMP DP  RH WIND       PRES   REMARKS
BIG PINEY      SUNNY     43  26  51 CALM      30.28R
PINEDALE       SUNNY     43  30  61 CALM      30.29S
DUBOIS         FAIR      55  21  26 NW17      30.18R
LANDER         MOSUNNY   51  27  39 SW5       30.12S
RIVERTON       MOSUNNY   52  26  36 CALM      30.14R
CASPER         MOSUNNY   61  30  31 SW28G33   30.12S
DOUGLAS        MOSUNNY   62  31  31 W7        30.11R

$$
WYZ021-027>030-104>119-241700-
SOUTHERN WYOMING

CITY           SKY/WX    TMP DP  RH WIND       PRES   REMARKS
EVANSTON       SUNNY     55  24  30 SW16      30.28R
KEMMERER       MOSUNNY   52  27  37 CALM      30.30R
FORT BRIDGER   FAIR      57  24  27 W10       30.30S
ROCK SPRINGS   SUNNY     52  31  44 CALM      30.28R
DIXON          FAIR      58  32  37 S13G20    30.33S
RAWLINS        MOSUNNY   60  28  29 SW17      30.29R
SARATOGA       FAIR      57  32  38 E8        30.31S
LARAMIE        MOSUNNY   59  26  28 SW22G31   30.27S
CHEYENNE       CLOUDY    60  28  29 W9        30.23R
TORRINGTON     PTSUNNY   67  35  30 W10       30.09R
PINE BLUFFS    FAIR      70  32  24 W13       30.17R

$$



USA.gov is the U.S. government's official web portal to all federal, state and local government web resources and services.